Weather in Shelomy

Russia / Bryansk Oblast     52°34′25″N   31°50′44″E
temp.,
°C
wind,
m/s
gust,
m/s
humid.,
%
clouds,
%
prec.,
mm/h
press.,
hPa
HPBL,
m
18 may, tue
tue1800:00+15sse38977 0.3 1001204
03:00+13s3699100 0.3 1002170
06:00+14sse3797100 0.0 1003297
09:00+17sse3580100 0.0 1004539
12:00+19se2372100 0.0 1003972
15:00+17e3588100 2.9 1001397
18:00+17e4991100 4.0 1000425
21:00+15ese3795100 4.8 1000200
19 may, wed
wed1900:00+14se410977 0.5 1000259
03:00+12se4109796 0.6 1000299
06:00+12se499867 0.0 1001345
09:00+13sse5889100 0.0 1002583
12:00+15sse568197 0.0 1003778
15:00+19sse466084 0.1 10031542
18:00+18sse3467100 0.4 10031077
21:00+13s2286100 1.4 100412
20 may, thu
thu2000:00+11nw3699100 0.6 1004183
03:00+11wnw3799100 1.4 1003308
06:00+12wnw4898100 0.3 1003485
09:00+12wnw5896100 0.3 1003575
12:00+11wnw5894100 0.3 1005700
15:00+11w3894100 1.0 1007577
18:00+12w3888100 0.1 1008347
21:00+11nw22885 0.1 101024
21 may, fri
fri2100:00+8wsw22925 0.0 101118
03:00+7wsw239613 0.0 101354
06:00+8nw2294100 0.0 101448
09:00+13n2276100 0.0 1014364
12:00+17n226094 0.0 10151358
15:00+17n2360100 0.9 10151217
18:00+16ne2265100 0.8 1015568
21:00+12ne118188 1.1 101610
22 may, sat
sat2200:00+10nne22885 0.0 101617
03:00+8nne33903 0.0 101647
06:00+8ne35900 0.0 1017109
09:00+15ne34680 0.0 1016451
12:00+18ne33540 0.0 10151269
15:00+20ne224815 0.0 10161825
18:00+20ene2356100 0.0 10151508
21:00+14ese337840 0.0 101429